This demonstration page uses our WeatherBlox Daily Observations layout. Learn more.

Left ArrowRight Arrow

Hourly Observations for March 29, 2022

Temp ( °F °C ) Dew Point ( °F °C ) Humidity (%) Winds ( mph kmh ) Pressure ( in mb ) Visibility ( mi km ) Precip ( " mm )
12:56 am 00:56 Clear 41 5 30 -1.1 65 65 SE 14 22 29.76 1008 10 16 0.00 0.00
1:56 am 01:56 Clear 39 3.9 29 -1.7 67 67 SE 12 19 29.73 1007 10 16 0.00 0.00
2:56 am 02:56 Clear 36 2.2 28 -2.2 73 73 E 12 19 29.69 1006 10 16 0.00 0.00
3:56 am 03:56 Clear 36 2.2 27 -2.8 70 70 E 14 22 29.65 1004 10 16 0.00 0.00
4:56 am 04:56 Clear 34 1.1 26 -3.3 73 73 E 10 17 29.61 1003 10 16 0.00 0.00
5:56 am 05:56 Clear 37 2.8 25 -3.9 62 62 E 14 22 29.59 1002 10 16 0.00 0.00
6:56 am 06:56 Clear 37 2.8 26 -3.3 65 65 ESE 15 24 29.56 1001 10 16 0.00 0.00
7:56 am 07:56 Sunny 37 2.8 27 -2.8 67 67 ESE 15 24 29.54 1001 10 16 0.00 0.00
8:56 am 08:56 Sunny 39 3.9 29 -1.7 67 67 E 15 24 29.50 999 10 16 0.00 0.00
9:56 am 09:56 Sunny 42 5.6 31 -0.6 65 65 ESE 18 30 29.48 998 10 16 0.00 0.00
10:56 am 10:56 Sunny 48 8.9 35 1.7 61 61 SE 16 26 29.45 997 10 16 0.00 0.00
11:56 am 11:56 Sunny 52 11.1 37 2.8 57 57 ESE 14 22 29.40 996 10 16 0.00 0.00
12:56 pm 12:56 Sunny 61 16.1 43 6.1 52 52 ESE 18 30 29.32 993 10 16 0.00 0.00
1:56 pm 13:56 Sunny 68 20 44 6.7 42 42 ESE 15 24 29.24 990 10 16 0.00 0.00
2:56 pm 14:56 Sunny 76 24.4 44 6.7 32 32 SE 20 31 29.18 988 10 16 0.00 0.00
3:56 pm 15:56 Cloudy 74 23.3 48 8.9 40 40 ESE 15 24 29.13 986 10 16 0.00 0.00
4:11 pm 16:11 Mostly Cloudy 79 26 39 4 24 24 WSW 31 50 29.04 983 9 14 0.00 0.00
4:56 pm 16:56 Sunny 73 22.8 37 2.8 27 27 SW 24 39 29.14 987 10 16 0.00 0.00
5:56 pm 17:56 Mostly Sunny 69 20.6 37 2.8 31 31 SSW 16 26 29.15 987 10 16 0.00 0.00
6:56 pm 18:56 Sunny 61 16.1 38 3.3 43 43 SW 23 37 29.15 987 10 16 0.00 0.00
7:25 pm 19:25 Hazy 61 16 45 7 55 55 W 35 56 29.15 987 5 8 0.00 0.00
7:56 pm 19:56 Mostly Sunny 54 12.2 35 1.7 49 49 W 33 54 29.25 991 10 16 0.00 0.00
8:56 pm 20:56 Cloudy 49 9.4 37 2.8 64 64 NW 28 44 29.35 994 10 16 0.00 0.00
9:56 pm 21:56 Cloudy 45 7.2 37 2.8 74 74 NW 29 46 29.41 996 10 16 0.00 0.00
10:31 pm 22:31 Cloudy 43 6 37 3 81 81 NNW 31 50 29.43 997 10 16 0.00 0.00
10:56 pm 22:56 Cloudy 42 5.6 37 2.8 82 82 NNW 31 50 29.41 996 10 16 0.00 0.00
11:56 pm 23:56 Cloudy 40 4.4 34 1.1 79 79 NNW 33 54 29.44 997 10 16 0.00 0.00

Powered by AerisWeather